Location: Unspecified
(0.0000°N, 0.0000°E)
Time: 03:49:20
(UTC+02:00)

Daily predictions for brighter satellites

Satellite Brightness Start Highest point End
(mag) Time Altitude Azimuth Time Altitude Azimuth Time Altitude Azimuth
Timation 2 Rocket 4.2 05:34:38 68° NE 05:35:12 72° ENE 05:41:40 10° SSE
Ariane 42L Rocket 4.0 05:45:52 51° SSW 05:46:59 58° S 06:09:51 10° E
CZ-4B DEB 4.1 05:43:45 10° NNE 05:49:41 77° S 05:54:50 10° SSW
Ariane 3 Deb 3.6 05:52:43 37° ESE 05:52:43 37° ESE 05:54:19 10° ESE
ARIANE 42L R/B 4.0 05:53:51 27° ESE 05:53:51 27° ESE 05:55:11 10° E
Sylda 4400 4.3 05:57:31 49° S 05:57:31 49° S 06:00:32 10° ESE
Cosmos 1680 Rocket 3.8 05:56:33 36° N 05:58:36 65° ENE 06:03:47 10° SSE
Cosmos 1953 4.0 05:59:36 10° NNE 06:03:11 33° E 06:06:46 10° SSE
BLOCK DM-SL R/B 4.3 05:58:55 37° W 06:04:29 84° N 06:09:54 10° E
Cosmos 923 Rocket 3.8 06:04:55 71° W 06:05:07 72° WSW 06:10:18 10° S
CZ-4B R/B 3.1 06:01:42 10° N 06:07:12 66° WNW 06:12:48 10° SSW
CZ-4B R/B 4.3 06:03:09 10° NNE 06:07:37 70° ESE 06:12:02 10° S
GPS 2-15 Rocket1 3.7 06:09:09 44° N 06:09:47 47° NNE 06:14:29 10° E
Okean-O 4.3 06:10:41 10° NE 06:14:40 34° ESE 06:18:41 10° SSE
Cosmos 2181 Rocket 4.1 06:09:11 10° S 06:15:34 76° E 06:21:50 10° N
Cosmos 1805 4.1 06:18:59 36° SSW 06:18:59 36° SSW 06:21:32 10° S
GPS 2-17 Rocket1 4.4 06:18:29 24° N 06:19:38 27° NNE 06:23:28 10° E
Cosmos 1812 Rocket 3.4 06:18:54 48° NNW 06:19:57 68° W 06:24:16 10° S
ARIANE 5 R/B 2.6 06:20:40 52° WSW 06:21:32 83° S 06:34:08 10° E
Cosmos 2184 Rocket 3.9 06:17:07 10° NNW 06:23:14 65° W 06:29:19 10° S
Ariane H10 3.8 06:23:32 28° N 06:24:04 30° NNE 06:29:50 10° E
Cosmos 2112 Rocket 3.8 06:22:24 20° NNW 06:26:02 72° WSW 06:31:14 10° S
Abrixas 3.2 06:31:13 35° ENE 06:31:13 35° ENE 06:33:00 10° ESE
CZ-3 Stage 3 3.8 06:33:01 13° SSW 06:33:01 13° SSW 06:33:30 10° S
Ariane H10 3.3 06:34:11 21° SW 06:36:14 41° SSE 06:47:05 10° E
CZ-3 R/B 4.3 06:22:41 10° NW 06:38:58 23° N 06:45:24 10° NE
Cosmos 372 Rocket 4.2 06:34:46 10° SSW 06:39:38 43° WNW 06:44:32 10° N
Uosat 12 SS-18 rocket 4.0 06:36:25 10° SSW 06:40:33 57° WNW 06:45:11 10° NNE
Delta 2 Rocket 4.1 06:36:17 13° SW 06:41:42 67° SSE 06:47:44 10° ENE
Feng Yun 1-1 Rocket 4.3 06:36:31 10° NNE 06:42:17 85° WNW 06:48:11 10° SSW
IDEFIX/ARIANE 42P 4.0 06:38:28 10° NNE 06:43:19 40° ESE 06:48:10 10° S
Cosmos 1125 Rocket 4.0 06:39:05 10° SW 06:43:45 34° WNW 06:48:26 10° NNW
Cosmos 1356 3.5 06:40:32 10° S 06:44:01 77° E 06:47:28 10° N
Hubble Space Telescope 0.8 06:43:18 28° WNW 06:45:23 69° SSW 06:49:31 10° SE
ARIANE 5 DEB (SYLDA) 3.0 06:43:22 22° W 06:46:24 74° N 06:54:26 10° E
Meteor 2-5 Rocket 4.1 06:40:59 10° SSW 06:46:37 45° W 06:52:14 10° NNW
deb Kosmos-1763 4.0 06:44:07 10° NNW 06:47:51 76° WSW 06:51:35 10° S
Intelsat 5-1 Rocket 3.3 06:48:07 11° NNW 06:48:12 11° NNW 06:49:16 10° N
Ariane H10+ 2.0 06:48:18 15° N 06:48:35 15° N 06:50:03 10° NE
NOSS 2-3 (D) 3.6 06:50:15 10° SSW 06:55:01 67° WNW 06:59:30 10° NNE
SJ 16-02 2.2 06:53:09 10° SW 06:56:52 26° WNW 07:00:33 10° NNW
NATO 3D Rocket 4.0 06:55:39 10° WSW 07:00:44 69° SSE 07:07:34 10° ENE
Cosmos 1470 3.0 06:58:18 10° NNW 07:02:00 45° W 07:05:43 10° SSW
Cosmos 1674 4.2 06:58:53 10° SSE 07:02:27 40° E 07:05:58 10° NNE
Cosmos 2084 Rocket 4.0 06:59:24 10° SW 07:03:45 39° WNW 07:07:55 10° N
NOAA 6 4.2 06:59:52 10° N 07:04:50 51° WNW 07:09:48 10° SSW
PAYLOAD A 3.9 07:03:18 10° N 07:08:08 86° WNW 07:13:12 10° SSW
Cosmos 1833 4.4 07:04:29 10° N 07:10:04 75° ENE 07:15:42 10° SSE
CZ-2C R/B 3.9 07:06:17 10° SSE 07:11:04 84° ENE 07:15:49 10° N
ARIANE DEB (SPELDA) 3.5 07:00:32 11° W 07:14:43 68° N 07:18:00 10° ENE
Yuri Rocket 4.3 07:08:51 10° WSW 07:14:55 82° NNW 07:23:36 10° ENE
ARIANE 5 DEB (SYLDA 5A) 4.0 06:56:07 11° W 07:16:55 79° S 07:20:47 10° E
ARIANE 5 R/B 4.3 06:59:13 12° W 07:17:34 65° N 07:21:56 10° E
Cosmos 1697 Rocket 3.1 07:12:54 10° S 07:18:31 69° ESE 07:24:07 10° NNE
ATLAS 2AS CENTAUR R/B 2.9 07:12:34 10° SSW 07:19:28 90° SE 07:27:06 10° NNE
Delta 168 3.7 07:16:35 10° W 07:20:55 32° NNW 07:24:10 10° NE
Cosmos 1656 3.7 07:16:56 10° SSW 07:22:30 63° WNW 07:28:06 10° N
USA 116 3.1 07:19:47 10° S 07:22:52 76° WSW 07:26:04 10° NNW
Centaur AC-125 3.2 07:25:38 10° NW 07:31:45 43° NNE 07:34:11 10° E
